Weather in Bartoszyce

Poland     54°15′14″N   20°48′57″E
temp.,
°C
wind,
m/s
gust,
m/s
humid.,
%
clouds,
%
prec.,
mm/h
press.,
hPa
HPBL,
m
13 may, thu
thu1323:00+12ese311910 0.0 1009253
02:00+10ese36890 0.0 100994
05:00+9se34900 0.0 100772
08:00+14ese23757 0.0 1006279
11:00+17ene336558 0.0 10041003
14:00+16ene447198 0.1 1003804
17:00+16ne447191 0.1 10021179
20:00+12ne47921 0.4 1001231
14 may, fri
fri1423:00+8ne359941 0.0 1001129
02:00+9nne249998 0.0 1001151
05:00+9n2498100 0.0 1001236
08:00+10ne3496100 0.1 1001374
11:00+12ne2288100 0.1 1002542
14:00+14n2276100 0.3 1002829
17:00+14nnw4479100 0.2 1003695
20:00+10nnw2391100 0.3 100473
15 may, sat
sat1523:00+7nw2294100 0.0 100526
02:00+6w2292100 0.0 100513
05:00+6wsw2291100 0.0 100625
08:00+11sw2378100 0.0 1006315
11:00+15sw236776 0.0 1007946
14:00+17sw3462100 0.3 10061320
17:00+16wsw45705 0.4 10061080
20:00+12wsw22876 0.4 100719
16 may, sun
sun1623:00+9s229186 0.0 100725
02:00+9sse3390100 0.0 100736
05:00+9s3591100 0.1 1007119
08:00+10se41097100 2.2 1006297
11:00+12sse41094100 0.7 1006528
14:00+13ssw259279 1.6 1005207
17:00+16ssw3477100 0.6 1004814
20:00+13wsw228870 1.8 100411
17 may, mon
mon1723:00+11wnw3595100 0.2 1004142
02:00+11wnw51097100 2.3 1004428
05:00+10nw259796 1.5 1005194
08:00+12wsw118614 1.5 1006403
11:00+16ssw226934 0.1 10061127
14:00+18s125697 0.3 10051739
17:00+16ese347722 0.4 1006163
20:00+13e22845 1.2 100617